Location: Unspecified
(0.0000°N, 0.0000°E)
Time: 01:28:49
(UTC+00:00)

GOMX4-A - Visible Passes

Search period start: 20 July 2024 00:00
Search period end: 30 July 2024 00:00
Orbit: 306 x 314 km, 97.6° (Epoch: 19 July)

Date Brightness Start Highest point End Pass type
(mag) Time Alt. Az. Time Alt. Az. Time Alt. Az.
23 Jul ? 05:09:50 10° ESE 05:11:12 14° E 05:12:34 10° NE visible
24 Jul ? 05:19:50 10° SE 05:21:51 21° E 05:23:50 10° NNE visible
25 Jul ? 05:29:44 10° SSE 05:32:03 35° ENE 05:34:21 10° N visible
26 Jul ? 05:39:22 10° SSE 05:41:49 65° ENE 05:44:13 10° N visible
